Regional Weather Roundup
Issued by NWS

Home | Current Version | Previous Version | Text Only | Print | Product List | Glossary On
Versions: 1 2 3 4 5 6 7 8 9 10 11 12 13 14 15 16 17 18 19 20 21 22 23 24 25 26 27 28 29 30 31 32 33 34 35 36 37 38 39 40 41 42 43 44 45 46 47 48 49 50
000
ASUS43 KDTX 060610
RWRMI
MICHIGAN HOURLY REGIONAL WEATHER ROUNDUP
NATIONAL WEATHER SERVICE DETROIT/PONTIAC MI
200 AM EDT FRI MAY 06 2016

NOTE: "FAIR" INDICATES FEW OR NO CLOUDS BELOW 12,000 FEET WITH NO
SIGNIFICANT WEATHER AND/OR OBSTRUCTION TO VISIBILITY.

MIZ047>049-052>055-059>063-066>070-074>076-081>083-060700-
SOUTHEAST LOWER MICHIGAN

CITY           SKY/WX    TMP DP  RH WIND       PRES   REMARKS
ADRIAN         PTCLDY    53  41  63 NW7       29.93R
6HR MIN TEMP:  49; 6HR MAX TEMP:  62;

ALMA           CLEAR     43  41  95 W6        29.94S
6HR MIN TEMP:  43; 6HR MAX TEMP:  61;

BAD AXE        CLEAR     38  35  92 CALM      29.93S
CARO           CLEAR     40  39  95 CALM      29.92S
DETROIT CITY   CLEAR     51  33  50 N5        29.91S
6HR MIN TEMP:  51; 6HR MAX TEMP:  61;

DETROIT        PTCLDY    50  35  56 NW5       29.91S
6HR MIN TEMP:  50; 6HR MAX TEMP:  62;

FLINT          PTCLDY    50  39  66 CALM      29.93R
6HR MIN TEMP:  50; 6HR MAX TEMP:  63;

GROSSE ILE     CLEAR     48  36  61 N5        29.89S
HILLSDALE      PTCLDY    48  40  71 NW3       29.94R
6HR MIN TEMP:  48; 6HR MAX TEMP:  61;

HOWELL         CLEAR     46  41  83 NW3       29.93R

CITY           SKY/WX    TMP DP  RH WIND       PRES   REMARKS
JACKSON        CLEAR     48  44  86 W3        29.94R
6HR MIN TEMP:  48; 6HR MAX TEMP:  62;

LAMBERTVILLE   CLEAR     45  41  85 CALM      29.91S
6HR MIN TEMP:  45; 6HR MAX TEMP:  64;

LANSING        CLEAR     47  42  83 CALM      29.94S
6HR MIN TEMP:  46; 6HR MAX TEMP:  61;

LAPEER         FAIR      40  38  92 CALM      29.92S
6HR MIN TEMP:  40; 6HR MAX TEMP:  59;

MASON          CLEAR     47  42  84 CALM      29.94S
MONROE         CLEAR     49  37  65 CALM      29.90S
6HR MIN TEMP:  46; 6HR MAX TEMP:  62;

MT. CLEMENS    CLEAR     47  36  64 N5        29.89S
6HR MIN TEMP:  47; 6HR MAX TEMP:  59;

PONTIAC        CLEAR     47  37  68 NW5       29.91R
6HR MIN TEMP:  45; 6HR MAX TEMP:  61;

PORT HOPE        N/A     45  41  86 NW6       29.91S
6HR MIN TEMP:  43; 6HR MAX TEMP:  49;

PORT HURON     CLEAR     41  39  93 CALM      29.91S
TRI CITIES     CLEAR     47  40  76 NW6       29.94S
6HR MIN TEMP:  47; 6HR MAX TEMP:  59;

MIDLAND        FAIR      40  39  96 CALM      29.93F
6HR MIN TEMP:  40; 6HR MAX TEMP:  56;

TROY           CLEAR     53  34  48 NW6       29.92S
SAGINAW HB     CLEAR     45  43  93 CALM      29.93S
$$
MIZ043>046-050>051-056>058-064>065-071>073-077>080-060700-
SOUTHWEST LOWER MICHIGAN

CITY           SKY/WX    TMP DP  RH WIND       PRES   REMARKS
BATTLE CREEK   CLEAR     46  37  71 W3        29.95S
6HR MIN TEMP:  46; 6HR MAX TEMP:  61;

BENTON HARBOR  CLEAR     38  35  89 CALM      29.98S
6HR MIN TEMP:  37; 6HR MAX TEMP:  48;

BIG RAPIDS     CLEAR     40  35  80 CALM      29.94S
6HR MIN TEMP:  40; 6HR MAX TEMP:  61;

COLDWATER      CLEAR     47  39  74 CALM      29.95R
6HR MIN TEMP:  45; 6HR MAX TEMP:  61;

FREMONT        FAIR      40  38  95 CALM      29.95S
HOLLAND        CLEAR    N/A N/A N/A W3        29.97R
GRAND RAPIDS   CLEAR     50  37  61 NW3       29.95S
6HR MIN TEMP:  50; 6HR MAX TEMP:  64;

IONIA          FAIR      50  40  67 CALM      29.94S
6HR MIN TEMP:  50; 6HR MAX TEMP:  62;

KALAMAZOO      CLEAR     44  35  70 CALM      29.96R
6HR MIN TEMP:  43; 6HR MAX TEMP:  60;

LUDINGTON      CLEAR     36  35  95 CALM      29.96R
6HR MIN TEMP:  35; 6HR MAX TEMP:  51;

MARSHALL       CLEAR     45  39  78 CALM      29.94S
6HR MIN TEMP:  45; 6HR MAX TEMP:  62;

MOUNT PLEASANT   N/A     44  43  95 CALM      29.94S
6HR MIN TEMP:  44; 6HR MAX TEMP:  64;

MUSKEGON       CLEAR     40  34  79 CALM      29.96S
6HR MIN TEMP:  38; 6HR MAX TEMP:  56;

SOUTH HAVEN    CLEAR     38  37  96 CALM      29.98S
$$
MIZ016>042-060700-
NORTHERN LOWER MICHIGAN

CITY           SKY/WX    TMP DP  RH WIND       PRES   REMARKS
ALPENA         CLEAR     45  39  79 W5        29.93S
6HR MIN TEMP:  45; 6HR MAX TEMP:  59;

BEAVER ISLAND  PTCLDY    37  34  89 CALM      29.92F
6HR MIN TEMP:  35; 6HR MAX TEMP:  49;

BELLAIRE       MOCLDY    36  35  94 CALM      29.94S
6HR MIN TEMP:  35; 6HR MAX TEMP:  54;

CADILLAC       CLEAR     35  34  96 CALM      29.93S
CHARLEVOIX     MOCLDY    40  37  89 CALM      29.96S
FRANKFORT      CLEAR     37  35  90 CALM      29.94S
GAYLORD        CLEAR     39  35  86 CALM      29.92F
6HR MIN TEMP:  38; 6HR MAX TEMP:  57;

GRAYLING       CLEAR     34  33  97 CALM      29.94F
6HR MIN TEMP:  34; 6HR MAX TEMP:  58;

HARBOR SPRINGS CLOUDY    40  35  83 CALM      29.94R
HOUGHTON LAKE  CLEAR     39  38  96 CALM      29.95S
6HR MIN TEMP:  39; 6HR MAX TEMP:  60;

MANISTEE       CLEAR     34  30  86 CALM      29.95S
OSCODA         CLEAR     43  36  75 CALM      29.92S
6HR MIN TEMP:  43; 6HR MAX TEMP:  55;

PELLSTON       CLOUDY    39  36  89 CALM      29.94R
6HR MIN TEMP:  36; 6HR MAX TEMP:  57;

ROGERS CITY    CLEAR     42  36  78 SW3       29.93S
TRAVERSE CITY  PTCLDY    39  35  86 CALM      29.92F
6HR MIN TEMP:  38; 6HR MAX TEMP:  50;

$$
MIZ007>008-015-060700-
EASTERN UPPER MICHIGAN

CITY           SKY/WX    TMP DP  RH WIND       PRES   REMARKS
KINROSS          N/A     43  36  75 W5        29.92R
6HR MIN TEMP:  39; 6HR MAX TEMP:  48;

MACKINAC ISLAN PTCLDY    41  36  81 W8        29.92S
6HR MIN TEMP:  40; 6HR MAX TEMP:  47;

NEWBERRY       CLEAR     40  37  87 S5        29.91R
6HR MIN TEMP:  40; 6HR MAX TEMP:  55;

S. S. MARIE    CLOUDY    41  34  76 CALM      29.91S
6HR MIN TEMP:  38; 6HR MAX TEMP:  51;

MUNISING         N/A     51  35  54 S13       29.86S
6HR MIN TEMP:  45; 6HR MAX TEMP:  55;

$$
MIZ004>006-011>014-085-060700-
CENTRAL UPPER MICHIGAN

CITY           SKY/WX    TMP DP  RH WIND       PRES   REMARKS
MANISTIQUE     PTCLDY    41  38  89 S6        29.90S
6HR MIN TEMP:  41; 6HR MAX TEMP:  47;

ESCANABA       MOCLDY    45  39  81 CALM      29.89F
6HR MIN TEMP:  43; 6HR MAX TEMP:  54;

MENOMINEE      CLOUDY    50  43  76 SE6       29.90S
6HR MIN TEMP:  46; 6HR MAX TEMP:  57;

SAWYER-GWINN   CLEAR     48  37  66 S8        29.85F
6HR MIN TEMP:  47; 6HR MAX TEMP:  61;

$$
MIZ001>003-009>011-084-060700-
WESTERN UPPER MICHIGAN

CITY           SKY/WX    TMP DP  RH WIND       PRES   REMARKS
IRON MOUNTAIN  PTCLDY    50  39  66 CALM      29.87F
6HR MIN TEMP:  49; 6HR MAX TEMP:  68;

HOUGHTON       CLEAR     48  34  58 CALM      29.80S
6HR MIN TEMP:  45; 6HR MAX TEMP:  57;

IRONWOOD         N/A     59  37  44 S12G21    29.80F
6HR MIN TEMP:  59; 6HR MAX TEMP:  68;

$$

ABBREVIATIONS USED IN REMARKS
   TC - TEMPERATURE IN CELSIUS
  WCI - WIND CHILL INDEX
   HX - HEAT INDEX
  VSB - VISIBILITY





USA.gov is the U.S. government's official web portal to all federal, state and local government web resources and services.